Total_Precipitation_Accumulation
0.11 0.10 0.06 0.05 0.08 0.19 0.24 0.20 0.14 0.10 0.07 0.06 0.03 0.01 0.00 0.00 0.00 0.00 0.00 0.03 0.07 0.06 0.04 0.05 0.06 0.06 0.05 0.04 0.05 0.06 0.05 0.05 0.04 0.03 0.03 0.05 0.04 0.03 0.03 0.05 0.07 0.10 0.09
0.16 0.17 0.16 0.18 0.16 0.24 0.28 0.28 0.22 0.21 0.14 0.11 0.05 0.02 0.02 0.00 0.00 0.00 0.00 0.01 0.04 0.06 0.03 0.06 0.09 0.08 0.07 0.06 0.06 0.05 0.05 0.03 0.03 0.02 0.01 0.01 0.02 0.02 0.03 0.04 0.06 0.09 0.10
0.29 0.41 0.44 0.33 0.22 0.29 0.31 0.26 0.21 0.28 0.21 0.18 0.11 0.11 0.08 0.03 0.01 0.01 0.01 0.01 0.01 0.04 0.04 0.08 0.11 0.10 0.12 0.12 0.13 0.12 0.10 0.05 0.03 0.02 0.02 0.02 0.01 0.01 0.01 0.01 0.01 0.06 0.10
0.35 0.48 0.38 0.18 0.20 0.39 0.45 0.38 0.34 0.37 0.27 0.17 0.10 0.18 0.17 0.06 0.03 0.02 0.02 0.01 0.00 0.00 0.02 0.06 0.13 0.16 0.19 0.21 0.20 0.21 0.20 0.12 0.04 0.02 0.02 0.02 0.02 0.01 0.00 0.00 0.04 0.10 0.10
0.27 0.33 0.20 0.11 0.25 0.41 0.32 0.26 0.24 0.31 0.30 0.21 0.16 0.11 0.09 0.05 0.03 0.03 0.01 0.02 0.02 0.02 0.01 0.02 0.12 0.22 0.24 0.28 0.26 0.23 0.24 0.19 0.12 0.08 0.05 0.04 0.03 0.02 0.00 0.02 0.08 0.12 0.11
0.14 0.20 0.19 0.13 0.20 0.20 0.13 0.21 0.35 0.39 0.28 0.22 0.23 0.09 0.06 0.07 0.06 0.04 0.04 0.03 0.03 0.03 0.01 0.01 0.07 0.16 0.21 0.26 0.26 0.20 0.16 0.16 0.14 0.13 0.09 0.07 0.07 0.03 0.01 0.03 0.09 0.07 0.07
0.08 0.09 0.10 0.09 0.13 0.10 0.05 0.14 0.26 0.22 0.11 0.22 0.23 0.09 0.03 0.03 0.03 0.02 0.03 0.02 0.02 0.02 0.02 0.03 0.05 0.10 0.11 0.14 0.16 0.18 0.15 0.13 0.12 0.10 0.08 0.10 0.09 0.05 0.01 0.02 0.03 0.02 0.04
0.02 0.02 0.03 0.04 0.04 0.05 0.03 0.06 0.17 0.20 0.16 0.22 0.23 0.14 0.02 0.00 0.00 0.00 0.00 0.01 0.01 0.01 0.01 0.03 0.07 0.10 0.11 0.11 0.12 0.17 0.18 0.15 0.13 0.12 0.14 0.14 0.12 0.07 0.03 0.03 0.03 0.01 0.02
0.00 0.00 0.00 0.01 0.01 0.02 0.02 0.03 0.09 0.13 0.13 0.12 0.16 0.17 0.05 0.00 0.00 0.00 0.00 0.01 0.01 0.01 0.03 0.08 0.12 0.14 0.16 0.17 0.16 0.13 0.12 0.11 0.14 0.17 0.19 0.14 0.07 0.05 0.05 0.07 0.06 0.03 0.01
0.00 0.00 0.00 0.00 0.00 0.00 0.01 0.01 0.02 0.05 0.07 0.06 0.04 0.04 0.06 0.06 0.03 0.01 0.01 0.01 0.00 0.01 0.05 0.09 0.16 0.23 0.20 0.16 0.14 0.12 0.11 0.09 0.12 0.17 0.19 0.18 0.12 0.09 0.13 0.20 0.20 0.11 0.03
0.00 0.00 0.00 0.00 0.00 0.00 0.01 0.03 0.03 0.03 0.03 0.03 0.04 0.04 0.06 0.07 0.06 0.03 0.01 0.01 0.01 0.02 0.06 0.10 0.20 0.23 0.19 0.20 0.22 0.20 0.17 0.13 0.10 0.09 0.11 0.15 0.20 0.24 0.28 0.32 0.35 0.31 0.22
0.00 0.00 0.00 0.00 0.01 0.01 0.02 0.02 0.02 0.03 0.04 0.05 0.06 0.07 0.07 0.06 0.03 0.03 0.01 0.01 0.01 0.03 0.11 0.18 0.24 0.26 0.22 0.24 0.27 0.20 0.13 0.09 0.06 0.04 0.04 0.06 0.09 0.10 0.13 0.17 0.25 0.34 0.38
0.00 0.00 0.01 0.00 0.00 0.00 0.02 0.02 0.03 0.03 0.04 0.05 0.06 0.06 0.06 0.06 0.06 0.05 0.05 0.04 0.02 0.01 0.07 0.18 0.26 0.24 0.18 0.18 0.18 0.12 0.07 0.03 0.01 0.00 0.00 0.01 0.03 0.09 0.14 0.16 0.20 0.26 0.32
0.00 0.00 0.00 0.00 0.00 0.01 0.03 0.04 0.05 0.06 0.06 0.05 0.05 0.05 0.04 0.07 0.11 0.11 0.13 0.15 0.09 0.04 0.07 0.15 0.21 0.24 0.23 0.20 0.16 0.10 0.04 0.01 0.00 0.00 0.00 0.00 0.01 0.02 0.07 0.15 0.25 0.33 0.36
0.00 0.00 0.00 0.00 0.00 0.00 0.01 0.02 0.03 0.04 0.04 0.04 0.06 0.09 0.08 0.11 0.15 0.13 0.13 0.16 0.14 0.10 0.14 0.15 0.12 0.11 0.12 0.11 0.09 0.05 0.02 0.01 0.00 0.00 0.00 0.00 0.00 0.00 0.00 0.01 0.03 0.06 0.10
0.00 0.00 0.00 0.00 0.00 0.01 0.01 0.01 0.02 0.04 0.06 0.06 0.10 0.14 0.14 0.14 0.15 0.13 0.15 0.16 0.10 0.08 0.13 0.15 0.09 0.07 0.05 0.03 0.02 0.01 0.00 0.00 0.00 0.00 0.00 0.00 0.00 0.00 0.00 0.00 0.00 0.00 0.00
0.00 0.00 0.00 0.00 0.01 0.01 0.03 0.05 0.08 0.10 0.13 0.14 0.16 0.18 0.19 0.18 0.18 0.16 0.18 0.15 0.07 0.04 0.04 0.04 0.03 0.02 0.01 0.01 0.00 0.00 0.00 0.00 0.00 0.00 0.00 0.00 0.01 0.00 0.00 0.00 0.00 0.00 0.00
0.00 0.00 0.00 0.01 0.01 0.01 0.02 0.07 0.15 0.14 0.13 0.16 0.23 0.32 0.32 0.31 0.21 0.13 0.15 0.11 0.05 0.03 0.02 0.01 0.00 0.00 0.00 0.00 0.00 0.00 0.00 0.00 0.00 0.00 0.00 0.00 0.01 0.00 0.00 0.00 0.00 0.00 0.00
0.00 0.00 0.00 0.01 0.01 0.00 0.01 0.06 0.14 0.14 0.17 0.26 0.36 0.35 0.29 0.29 0.19 0.12 0.10 0.07 0.04 0.02 0.01 0.00 0.00 0.00 0.00 0.00 0.00 0.00 0.00 0.00 0.00 0.00 0.00 0.00 0.01 0.02 0.01 0.00 0.00 0.00 0.00
0.00 0.00 0.00 0.01 0.02 0.01 0.02 0.06 0.12 0.16 0.25 0.38 0.36 0.19 0.15 0.16 0.12 0.08 0.05 0.02 0.01 0.00 0.00 0.00 0.00 0.00 0.00 0.00 0.00 0.00 0.00 0.00 0.00 0.00 0.00 0.00 0.00 0.00 0.00 0.00 0.00 0.00 0.00
0.00 0.00 0.00 0.01 0.01 0.00 0.02 0.07 0.14 0.11 0.12 0.17 0.15 0.08 0.05 0.04 0.03 0.02 0.01 0.00 0.00 0.00 0.00 0.00 0.00 0.00 0.00 0.00 0.00 0.00 0.00 0.00 0.00 0.00 0.00 0.00 0.00 0.00 0.00 0.00 0.00 0.00 0.00
0.00 0.00 0.00 0.00 0.00 0.00 0.01 0.04 0.05 0.05 0.05 0.05 0.03 0.02 0.01 0.00 0.00 0.00 0.00 0.00 0.00 0.00 0.00 0.00 0.00 0.00 0.00 0.00 0.00 0.00 0.00 0.00 0.00 0.00 0.00 0.00 0.00 0.00 0.00 0.00 0.00 0.00 0.00
0.00 0.00 0.01 0.00 0.00 0.00 0.00 0.00 0.00 0.01 0.01 0.00 0.00 0.00 0.00 0.00 0.00 0.00 0.00 0.00 0.00 0.00 0.00 0.00 0.00 0.00 0.00 0.00 0.00 0.00 0.00 0.00 0.00 0.00 0.00 0.00 0.00 0.00 0.00 0.00 0.00 0.00 0.00
0.00 0.00 0.00 0.00 0.00 0.00 0.00 0.00 0.00 0.00 0.00 0.00 0.00 0.00 0.00 0.00 0.00 0.00 0.00 0.00 0.00 0.00 0.00 0.00 0.00 0.00 0.00 0.00 0.00 0.00 0.00 0.00 0.00 0.00 0.00 0.00 0.00 0.00 0.00 0.00 0.00 0.00 0.00
0.02 0.01 0.00 0.00 0.00 0.00 0.00 0.00 0.00 0.00 0.00 0.00 0.00 0.00 0.00 0.00 0.00 0.00 0.00 0.00 0.00 0.00 0.00 0.00 0.00 0.00 0.00 0.00 0.00 0.00 0.00 0.00 0.00 0.00 0.00 0.00 0.00 0.00 0.00 0.00 0.00 0.00 0.00
0.05 0.02 0.00 0.00 0.00 0.00 0.00 0.00 0.00 0.00 0.00 0.00 0.00 0.00 0.00 0.00 0.00 0.00 0.00 0.00 0.00 0.00 0.00 0.00 0.00 0.00 0.00 0.00 0.00 0.00 0.00 0.00 0.00 0.00 0.00 0.00 0.00 0.00 0.00 0.00 0.00 0.00 0.00